[[{"header":{"parameterUnit":"m.s-1","parameterCategory":1,"la1":30.2991,"la2":30.254,"lo1":-89.0895,"lo2":-89.0444,"dy":0.0017,"dx":0.0017,"nx":28,"ny":28,"refTime":"2023-11-11T09:00:00:Z","depth":0,"parameterNumber":2,"parameterNumberName":"U-component_of_WINDS"},"data":[0,0,0,0,0,0,0,0,0,0,0,0,0,0,0,0,0,0,0,0,0,0,0,0,0,0,0,0,0,0,0,0,0,0,0,0,0,0,0,0,0,0,0,0,0,0,0,0,0,0,0,0,0,0,0,0,0,0,-2.1746,-2.1747,0,-2.1803,-2.1804,-2.1805,-2.1763,-2.1761,-2.1759,-2.1758,-2.1816,-2.1819,-2.1823,0,0,0,0,0,0,0,0,0,0,0,0,0,-2.1601,-2.1604,-2.1746,-2.1747,-2.1748,-2.1803,-2.1804,-2.1805,-2.1763,-2.1761,-2.1759,-2.1757,-2.1815,-2.1819,-2.1823,0,0,0,0,0,0,0,0,0,0,0,0,0,-2.1662,-2.1605,-2.1746,-2.1734,-2.1733,-2.1803,-2.1804,-2.1805,-2.1764,-2.1761,-2.1758,-2.1756,-2.1814,-2.1819,-2.1823,-2.1909,0,0,-2.1838,-2.184,0,0,0,0,0,0,0,0,-2.1658,-2.1667,-2.1735,-2.1735,-2.1734,-2.1773,-2.1774,-2.184,-2.1764,-2.1752,-2.1758,-2.1754,-2.1804,-2.181,-2.1826,-2.1912,-2.1914,-2.1839,-2.1842,-2.1844,-2.1845,0,0,0,0,0,0,0,-2.1654,-2.1664,-2.1769,-2.1736,-2.1735,-2.1725,-2.1731,-2.1786,-2.1793,-2.1753,-2.175,-2.1757,-2.1803,-2.1822,-2.1827,-2.1915,-2.1839,-2.1843,-2.1846,-2.1848,-2.2073,-2.2076,0,0,0,0,0,0,-2.1651,-2.1661,-2.1767,-2.1771,-2.1689,-2.173,-2.1736,-2.1763,-2.1792,-2.1794,-2.176,-2.1755,-2.1815,-2.1822,-2.1829,-2.1931,-2.1844,-2.1848,-2.1851,-2.207,-2.2073,-2.2077,0,0,0,0,0,0,-2.1648,-2.1661,-2.1765,-2.1715,-2.1727,-2.1735,-2.1766,-2.1766,-2.1784,-2.1797,-2.1798,-2.1777,-2.1813,-2.1822,-2.1889,-2.1933,-2.1851,-2.1855,-2.2066,-2.2071,-2.2075,-2.2136,0,0,0,0,0,0,-2.1644,-2.166,-2.1693,-2.1716,-2.173,-2.1824,-2.1769,-2.1769,-2.1793,-2.1788,-2.1814,-2.1816,-2.1811,-2.1882,-2.1894,-2.1938,-2.1859,-2.2062,-2.2068,-2.2074,-2.213,-2.2142,-2.2153,0,0,0,0,0,-2.1639,-2.1708,-2.1695,-2.1708,-2.1771,-2.1827,-2.1835,-2.1828,-2.1797,-2.183,-2.1838,-2.1815,-2.1926,-2.1889,-2.1903,-2.1949,-2.2059,-2.2066,-2.2073,-2.2125,-2.214,-2.2152,0,0,0,0,0,0,-2.169,-2.1711,-2.1696,-2.1775,-2.1799,-2.182,-2.1861,-2.1844,-2.1878,-2.1872,-2.1862,-2.1869,-2.1939,-2.195,-2.1909,-2.2033,-2.1988,-2.1997,-2.2023,-2.2037,-2.2048,-2.2044,-2.1863,0,0,0,0,0,-2.171,-2.1753,-2.1769,-2.1837,-2.185,-2.1853,-2.1877,-2.187,-2.1895,-2.1905,-2.1918,-2.1943,-2.1984,-2.2011,-2.2049,-2.2131,-2.2137,-2.2169,-2.218,-2.2189,-2.2198,-2.2243,-2.2258,-2.2099,-2.2099,-2.2099,0,0,-2.1752,-2.1769,-2.1797,-2.1847,-2.1866,-2.1911,-2.1862,-2.1912,-2.1945,-2.1913,-2.1977,-2.1987,-2.2014,-2.209,-2.2123,-2.2101,-2.2243,-2.2198,-2.2205,-2.2209,-2.2251,-2.2267,-2.228,-2.2104,-2.2103,-2.2102,0,0,-2.1853,-2.187,-2.1928,-2.1947,-2.1975,-2.1977,-2.1991,-2.2014,-2.2019,-2.2083,-2.206,-2.2099,-2.2169,-2.2189,-2.2209,-2.2316,-2.2297,-2.2329,-2.2387,-2.243,-2.2443,-2.2454,-2.2493,-2.2507,-2.2337,-2.2337,-2.2337,0,-2.1902,-2.1969,-2.196,-2.2012,-2.2035,-2.2007,-2.2066,-2.2084,-2.2123,-2.214,-2.2114,-2.2201,-2.2217,-2.2297,-2.2323,-2.234,-2.2355,-2.2326,-2.2442,-2.2453,-2.2463,-2.25,-2.2514,-2.2341,-2.2341,-2.234,-2.234,0,-2.2029,-2.2076,-2.2119,-2.2158,-2.2185,-2.224,-2.2239,-2.2268,-2.2258,-2.2263,-2.2328,-2.2346,-2.2387,-2.2405,-2.2396,-2.2484,-2.2469,-2.2443,-2.2398,-2.2482,-2.2517,-2.2531,-2.2347,-2.2345,-2.2344,-2.2343,0,0,-2.2164,-2.2196,-2.2213,-2.223,-2.2258,-2.2294,-2.2347,-2.2387,-2.2412,-2.244,-2.2484,-2.2544,-2.2519,-2.2542,-2.2534,-2.2572,-2.2657,-2.2541,-2.2542,-2.2563,-2.2754,-2.2775,-2.2791,-2.2643,-2.2646,-2.2648,-2.2752,0,-2.2267,-2.236,-2.2353,-2.2441,-2.2484,-2.2458,-2.2504,-2.2527,-2.2532,-2.2569,-2.2574,-2.2617,-2.2581,-2.2595,-2.2631,-2.2639,-2.2695,-2.2631,-2.2685,-2.2687,-2.268,-2.2809,-2.2831,-2.2929,-2.2766,-2.2768,-2.277,0,-2.2399,-2.2431,-2.2524,-2.2545,-2.2563,-2.2605,-2.2641,-2.2677,-2.2701,-2.2702,-2.2727,-2.2713,-2.2766,-2.2719,-2.2793,-2.2749,-2.2771,-2.2778,-2.2781,-2.2787,-2.2734,-2.2819,-2.296,-2.2975,-2.2791,-2.2789,-2.2787,0,-2.249,-2.2556,-2.262,-2.2635,-2.2661,-2.2692,-2.2704,-2.2726,-2.275,-2.2781,-2.2797,-2.2834,-2.2855,-2.2883,-2.288,-2.2845,-2.2955,-2.2907,-2.2957,-2.2958,-2.2983,-2.2981,-2.313,-2.2995,-2.2995,-2.2995,-2.2994,0,-2.2606,-2.2663,-2.2661,-2.27,-2.2764,-2.2755,-2.2818,-2.2827,-2.2846,-2.2887,-2.2866,-2.2904,-2.2896,-2.2935,-2.2932,-2.2993,-2.3003,-2.3005,-2.3004,-2.3008,-2.3008,-2.3022,-2.3016,-2.2998,-2.2998,-2.2997,-2.2996,0,-2.2718,-2.2718,-2.2786,-2.2806,-2.2812,-2.2858,-2.2874,-2.2912,-2.2914,-2.2966,-2.2977,-2.2982,-2.3026,-2.3025,-2.3075,-2.3073,-2.3148,-2.3139,-2.3141,-2.3139,-2.319,-2.3185,-2.3353,-2.3375,-2.3226,-2.3227,-2.3228,0,-2.2793,-2.2836,-2.286,-2.2886,-2.29,-2.2942,-2.2967,-2.2959,-2.2985,-2.3016,-2.305,-2.3091,-2.3125,-2.3196,-2.3203,-2.3241,-2.3233,-2.3289,-2.3238,-2.3241,-2.3235,-2.3232,-2.3237,-2.3299,-2.3301,-2.3303,-2.3304,0,-2.2925,-2.2923,-2.2959,-2.2996,-2.3026,-2.3055,-2.3081,-2.3103,-2.3098,-2.3129,-2.3173,-2.3199,-2.3249,-2.3291,-2.3327,-2.334,-2.3321,-2.3319,-2.3333,-2.3338,-2.3337,-2.3339,-2.3169,-2.3316,-2.3315,-2.3314,-2.3313,-2.3313,-2.3021,-2.3059,-2.3082,-2.3123,-2.3142,-2.3167,-2.3202,-2.321,-2.3247,-2.3287,-2.328,-2.333,-2.3352,-2.3399,-2.3415,-2.3453,-2.3433,-2.3453,-2.3458,-2.3464,-2.347,-2.333,-2.346,-2.3459,-2.3459,-2.3459,-2.3458,0,-2.3153,-2.3166,-2.3204,-2.3242,-2.3274,-2.3253,-2.3281,-2.3309,-2.3353,-2.3376,-2.3409,-2.346,-2.35,-2.351,-2.3549,-2.3578,-2.357,-2.3588,-2.3587,-2.359,-2.3485,-2.347,-2.3594,-2.3594,-2.3594,-2.3594,-2.3594,-2.3594,-2.3226,-2.3289,-2.3289,-2.3361,-2.3373,-2.3422,-2.344,-2.3462,-2.348,-2.3538,-2.3571,-2.3578,-2.3595,-2.3635,-2.3671,-2.3673,-2.3688,-2.371,-2.3709,-2.3611,-2.3597,-2.3584,-2.357,-2.3713,-2.3713,-2.381,-2.3811,-2.3812]},{"header":{"parameterUnit":"m.s-1","parameterCategory":1,"la1":30.2991,"la2":30.254,"lo1":-89.0895,"lo2":-89.0444,"dy":0.0017,"dx":0.0017,"nx":28,"ny":28,"refTime":"2023-11-11T09:00:00:Z","depth":0,"parameterNumber":3,"parameterNumberName":"V-component_of_WINDS"},"data":[0,0,0,0,0,0,0,0,0,0,0,0,0,0,0,0,0,0,0,0,0,0,0,0,0,0,0,0,0,0,0,0,0,0,0,0,0,0,0,0,0,0,0,0,0,0,0,0,0,0,0,0,0,0,0,0,0,0,-4.6562,-4.6562,0,-4.6597,-4.6597,-4.6598,-4.6551,-4.6549,-4.6548,-4.6546,-4.6578,-4.6581,-4.6583,0,0,0,0,0,0,0,0,0,0,0,0,0,-4.6449,-4.6452,-4.6562,-4.6562,-4.6563,-4.6597,-4.6598,-4.6598,-4.6551,-4.6549,-4.6547,-4.6545,-4.6577,-4.658,-4.6583,0,0,0,0,0,0,0,0,0,0,0,0,0,-4.6493,-4.6452,-4.6562,-4.6544,-4.6542,-4.6597,-4.6598,-4.6598,-4.6552,-4.6549,-4.6547,-4.6544,-4.6577,-4.658,-4.6584,-4.6657,0,0,-4.6595,-4.6596,0,0,0,0,0,0,0,0,-4.649,-4.6497,-4.6546,-4.6545,-4.6544,-4.6567,-4.657,-4.6618,-4.6552,-4.6548,-4.6546,-4.6543,-4.6576,-4.658,-4.6592,-4.6658,-4.6659,-4.6595,-4.6597,-4.6599,-4.66,0,0,0,0,0,0,0,-4.6487,-4.6495,-4.6575,-4.6546,-4.6545,-4.6532,-4.6536,-4.6579,-4.6576,-4.6548,-4.6545,-4.655,-4.6575,-4.6588,-4.6592,-4.666,-4.6595,-4.6598,-4.66,-4.6602,-4.6787,-4.679,0,0,0,0,0,0,-4.6487,-4.6493,-4.6574,-4.6577,-4.651,-4.6536,-4.654,-4.6562,-4.6575,-4.6575,-4.6552,-4.6548,-4.6584,-4.6588,-4.6593,-4.6679,-4.6599,-4.6602,-4.6604,-4.6784,-4.6788,-4.6791,0,0,0,0,0,0,-4.6485,-4.6495,-4.6573,-4.6534,-4.6543,-4.6541,-4.6566,-4.6564,-4.6577,-4.6578,-4.6577,-4.6566,-4.6582,-4.6588,-4.6641,-4.668,-4.6604,-4.6607,-4.6781,-4.6785,-4.6789,-4.6852,0,0,0,0,0,0,-4.6482,-4.6494,-4.6523,-4.6535,-4.6545,-4.6622,-4.6568,-4.6567,-4.6584,-4.6579,-4.6591,-4.6591,-4.658,-4.6636,-4.6645,-4.6683,-4.661,-4.6778,-4.6783,-4.6788,-4.6847,-4.6858,-4.6868,0,0,0,0,0,-4.6478,-4.6539,-4.6525,-4.6535,-4.6581,-4.6624,-4.663,-4.6618,-4.6588,-4.6616,-4.6616,-4.6591,-4.6674,-4.6642,-4.6652,-4.6692,-4.6775,-4.6782,-4.6788,-4.6842,-4.6856,-4.6867,0,0,0,0,0,0,-4.653,-4.654,-4.6525,-4.6591,-4.6607,-4.6616,-4.6651,-4.6633,-4.6657,-4.665,-4.6633,-4.6636,-4.6693,-4.6697,-4.6661,-4.6763,-4.6719,-4.6728,-4.6758,-4.6771,-4.6781,-4.6779,-4.6613,0,0,0,0,0,-4.6549,-4.6585,-4.6591,-4.6649,-4.6658,-4.6654,-4.6672,-4.6661,-4.6676,-4.6683,-4.6687,-4.6702,-4.6731,-4.6751,-4.6779,-4.6847,-4.6849,-4.6879,-4.689,-4.6898,-4.6906,-4.6942,-4.6955,-4.6811,-4.6811,-4.6811,0,0,-4.6589,-4.6599,-4.6622,-4.666,-4.6671,-4.6707,-4.666,-4.6699,-4.6726,-4.6688,-4.6739,-4.6743,-4.6758,-4.682,-4.6847,-4.6825,-4.6946,-4.6906,-4.6913,-4.6916,-4.6949,-4.6963,-4.6975,-4.6815,-4.6814,-4.6814,0,0,-4.668,-4.6692,-4.6741,-4.6754,-4.6772,-4.6769,-4.6781,-4.6793,-4.6794,-4.6845,-4.6818,-4.6848,-4.6899,-4.6912,-4.6924,-4.702,-4.6997,-4.7029,-4.7084,-4.7119,-4.7131,-4.7141,-4.7175,-4.7187,-4.7037,-4.7037,-4.7037,0,-4.6727,-4.6782,-4.6769,-4.6811,-4.6828,-4.6797,-4.6846,-4.6859,-4.6884,-4.6896,-4.6872,-4.6936,-4.6944,-4.7007,-4.7031,-4.7043,-4.7055,-4.7028,-4.713,-4.714,-4.7149,-4.7181,-4.7194,-4.7041,-4.704,-4.704,-4.704,0,-4.6838,-4.6876,-4.6914,-4.6941,-4.6962,-4.7008,-4.7,-4.7023,-4.701,-4.7009,-4.7061,-4.707,-4.7098,-4.7112,-4.71,-4.7174,-4.716,-4.7134,-4.709,-4.7167,-4.7197,-4.7209,-4.7046,-4.7045,-4.7044,-4.7043,0,0,-4.6963,-4.6983,-4.6997,-4.7009,-4.7027,-4.7055,-4.7098,-4.7128,-4.7147,-4.7166,-4.7201,-4.7246,-4.7221,-4.7236,-4.7224,-4.7255,-4.733,-4.7225,-4.7225,-4.7244,-4.7412,-4.7432,-4.7446,-4.7315,-4.7318,-4.7319,-4.7411,0,-4.7054,-4.7131,-4.7121,-4.7194,-4.7229,-4.72,-4.7238,-4.7252,-4.7252,-4.728,-4.7279,-4.7311,-4.7277,-4.7285,-4.7315,-4.7315,-4.7364,-4.7308,-4.7347,-4.7349,-4.7344,-4.7462,-4.7483,-4.7569,-4.7422,-4.7424,-4.7426,0,-4.7171,-4.7195,-4.7273,-4.7285,-4.7299,-4.7334,-4.7359,-4.7387,-4.7402,-4.74,-4.7417,-4.7399,-4.7441,-4.7397,-4.7455,-4.7417,-4.7432,-4.7435,-4.7438,-4.7441,-4.7392,-4.7468,-4.7596,-4.7608,-4.7444,-4.7442,-4.7441,0,-4.7254,-4.7306,-4.7359,-4.737,-4.7386,-4.741,-4.7418,-4.7431,-4.7449,-4.7471,-4.7482,-4.7508,-4.7523,-4.7543,-4.7532,-4.7501,-4.7592,-4.7547,-4.759,-4.759,-4.761,-4.7609,-4.7742,-4.762,-4.762,-4.762,-4.762,0,-4.7356,-4.7405,-4.7396,-4.7429,-4.7482,-4.7469,-4.7521,-4.7525,-4.7536,-4.7568,-4.7544,-4.7574,-4.7559,-4.7588,-4.758,-4.7628,-4.7635,-4.7633,-4.7631,-4.7636,-4.7636,-4.7645,-4.7639,-4.7623,-4.7623,-4.7622,-4.7621,0,-4.7458,-4.7454,-4.751,-4.7521,-4.7525,-4.7564,-4.7572,-4.7602,-4.76,-4.7641,-4.7649,-4.7646,-4.7678,-4.767,-4.7705,-4.77,-4.7761,-4.7751,-4.7757,-4.7754,-4.7798,-4.7794,-4.7941,-4.796,-4.7826,-4.7828,-4.7829,0,-4.7524,-4.7561,-4.7576,-4.7596,-4.7606,-4.7639,-4.7658,-4.7646,-4.7666,-4.7686,-4.7713,-4.7744,-4.7768,-4.782,-4.782,-4.7847,-4.7837,-4.7887,-4.7841,-4.7844,-4.7837,-4.7835,-4.7839,-4.7896,-4.7897,-4.7899,-4.79,0,-4.7641,-4.7638,-4.7666,-4.7695,-4.7718,-4.7739,-4.7758,-4.7775,-4.7765,-4.7788,-4.7822,-4.7841,-4.7877,-4.7907,-4.7932,-4.7937,-4.7917,-4.7914,-4.7926,-4.7931,-4.7933,-4.7932,-4.7781,-4.7911,-4.791,-4.7909,-4.7908,-4.7908,-4.7727,-4.7758,-4.7774,-4.7806,-4.7819,-4.7838,-4.7866,-4.7869,-4.7897,-4.7926,-4.7917,-4.7955,-4.7969,-4.7999,-4.8009,-4.8037,-4.8018,-4.8035,-4.8039,-4.8043,-4.8049,-4.7928,-4.8042,-4.8041,-4.8041,-4.8041,-4.804,0,-4.7842,-4.7851,-4.7881,-4.7909,-4.7935,-4.7914,-4.7934,-4.7956,-4.799,-4.8005,-4.803,-4.8068,-4.8097,-4.81,-4.8127,-4.8149,-4.814,-4.8157,-4.8155,-4.8157,-4.8064,-4.8052,-4.8164,-4.8164,-4.8164,-4.8164,-4.8163,-4.8163,-4.7906,-4.7958,-4.7956,-4.8013,-4.8021,-4.806,-4.8073,-4.8089,-4.8101,-4.8145,-4.817,-4.8172,-4.8181,-4.8209,-4.8235,-4.8234,-4.8245,-4.8265,-4.8262,-4.8175,-4.8163,-4.8151,-4.8139,-4.8268,-4.8268,-4.8352,-4.8352,-4.8353]}]]